TimeCST,TemperatureF,Dew PointF,Humidity,Sea Level PressureIn,VisibilityMPH,Wind Direction,Wind SpeedMPH,Gust SpeedMPH,PrecipitationIn,Events,Conditions,WindDirDegrees,DateUTC
12:53 AM,48.9,46.0,90,29.77,6.0,SE,5.8,-,N/A,,Clear,130,2012-12-03 06:53:00
1:53 AM,52.0,48.9,89,29.72,7.0,SE,13.8,-,N/A,,Clear,140,2012-12-03 07:53:00
2:53 AM,55.9,52.0,87,29.69,9.0,SSE,13.8,-,0.01,,Clear,160,2012-12-03 08:53:00
3:53 AM,59.0,55.0,87,29.65,10.0,South,13.8,-,N/A,,Clear,170,2012-12-03 09:53:00
4:53 AM,60.1,55.0,83,29.64,10.0,South,15.0,-,N/A,,Clear,170,2012-12-03 10:53:00
5:53 AM,61.0,55.9,83,29.63,10.0,South,13.8,-,N/A,,Clear,170,2012-12-03 11:53:00
6:53 AM,62.1,55.9,80,29.65,10.0,South,11.5,-,N/A,,Clear,180,2012-12-03 12:53:00
7:53 AM,62.1,55.9,80,29.66,10.0,South,13.8,-,N/A,,Partly Cloudy,190,2012-12-03 13:53:00
8:53 AM,63.0,57.0,81,29.66,10.0,South,13.8,24.2,N/A,,Clear,190,2012-12-03 14:53:00
9:53 AM,64.9,57.0,75,29.66,10.0,SSW,21.9,32.2,N/A,,Partly Cloudy,200,2012-12-03 15:53:00
10:38 AM,66.2,53.6,64,29.70,10.0,WSW,23.0,33.4,N/A,,Mostly Cloudy,240,2012-12-03 16:38:00
10:48 AM,66.2,53.6,64,29.71,10.0,WSW,17.3,28.8,N/A,,Mostly Cloudy,240,2012-12-03 16:48:00
10:53 AM,66.0,53.1,63,29.71,10.0,WSW,23.0,29.9,N/A,,Mostly Cloudy,250,2012-12-03 16:53:00
12:53 PM,64.4,42.8,45,29.76,10.0,WNW,18.4,25.3,N/A,,Clear,300,2012-12-03 18:53:00
1:53 PM,59.0,39.9,49,29.80,10.0,NNW,17.3,27.6,N/A,,Clear,330,2012-12-03 19:53:00
2:53 PM,61.0,42.1,50,29.83,10.0,North,13.8,19.6,N/A,,Clear,350,2012-12-03 20:53:00
4:53 PM,57.0,39.9,53,29.90,10.0,NNW,6.9,-,N/A,,Clear,330,2012-12-03 22:53:00
5:53 PM,54.0,36.0,51,29.94,10.0,NNW,6.9,-,N/A,,Clear,340,2012-12-03 23:53:00
6:53 PM,51.1,35.1,54,29.98,10.0,NW,5.8,-,N/A,,Clear,320,2012-12-04 00:53:00
7:53 PM,46.9,34.0,61,30.02,10.0,NW,4.6,-,N/A,,Clear,310,2012-12-04 01:53:00
8:53 PM,43.0,33.1,68,30.03,10.0,NW,4.6,-,N/A,,Clear,320,2012-12-04 02:53:00
9:53 PM,39.9,33.1,77,30.04,10.0,NW,3.5,-,N/A,,Clear,320,2012-12-04 03:53:00
10:53 PM,39.0,30.9,73,30.06,10.0,WNW,8.1,-,N/A,,Clear,300,2012-12-04 04:53:00
11:53 PM,39.0,30.9,73,30.08,10.0,NW,5.8,-,N/A,,Clear,310,2012-12-04 05:53:00